Regional Weather Roundup
Issued by NWS Upton, NY

Current Version | Previous Version | Text Only | Print | Product List | Glossary On
Versions: 1 2 3 4 5 6 7 8 9 10 11 12 13 14 15 16 17 18 19 20 21 22 23 24 25 26 27 28 29 30 31 32 33 34 35 36 37 38 39 40 41 42 43 44 45 46 47 48 49 50
711 ASUS41 KOKX 270308 RWROKX REGIONAL WEATHER ROUNDUP NATIONAL WEATHER SERVICE NEW YORK NY 1100 PM EDT MON JUN 26 2017 NOTE: "FAIR" INDICATES FEW OR NO CLOUDS BELOW 12,000 FEET WITH NO SIGNIFICANT WEATHER AND/OR OBSTRUCTIONS TO VISIBILITY. NYZ071-072-176-178-NJZ106-104-270400- NEW YORK CITY METRO AREA CITY SKY/WX TMP DP RH WIND PRES REMARKS Central Park CLEAR 73 46 38 VRB3 30.01R Bronx Bot Gard N/A 64 59 82 E1 29.99F LaGuardia APRT CLEAR 72 59 63 S8 29.98R Kennedy INTL CLEAR 69 61 75 SW8 30.00S Breezy Point N/A 66 N/A N/A SW6 N/A Newark/Liberty PTCLDY 71 48 43 SW10 29.98R Teterboro CLEAR 71 48 43 W6 29.97S $$ NYZ177-179-078>081-270400- LONG ISLAND NEW YORK CITY SKY/WX TMP DP RH WIND PRES REMARKS Jones Beach N/A 66 N/A N/A SW5 N/A Matinecock PT NOT AVBL Farmingdale NOT AVBL MacArthur/ISP CLEAR 69 63 81 SW9 29.99S Shirley CLEAR 68 65 90 S6 30.00S Mt Sinai Harb N/A N/A N/A N/A S9 N/A Westhampton CLEAR 67 60 78 S7 30.02S East Hampton FAIR 64 58 83 CALM 30.01R Montauk N/A 67 59 75 SW7 30.02R $$ NYZ052-065-067-270400- HUDSON VALLEY CITY SKY/WX TMP DP RH WIND PRES REMARKS White Plains CLEAR 63 58 83 CALM 29.99R Larchmont Harb N/A 66 N/A N/A SW5 N/A Croton O-T Hud N/A 68 N/A N/A E2 N/A Newburgh CLEAR 66 52 59 SW5 30.00R Montgomery CLEAR 58 53 84 S3 29.98R Poughkeepsie CLEAR 60 52 74 CALM 29.97R Albany LGT RAIN 60 57 89 W10 30.03R $$ NJZ001-105-106-008-010-013-015-019>022-104-270400- NEW JERSEY CITY SKY/WX TMP DP RH WIND PRES REMARKS Newark/Liberty PTCLDY 71 48 43 SW10 29.98R Teterboro CLEAR 71 48 43 W6 29.97S Caldwell CLEAR 68 50 52 CALM 29.99S Somerville CLEAR 59 55 87 CALM 29.97S Linden FAIR 72 45 37 CALM 29.99R Perth Amboy N/A 72 N/A N/A SW9 N/A Sussex CLEAR 57 54 89 CALM 30.00R Andover N/A 59 52 77 CALM 30.00S Trenton CLEAR 68 50 52 CALM 29.99S Millville CLEAR 62 59 90 CALM 30.00F Atlantic City CLEAR 69 59 70 S7 30.01S Wrightstown CLEAR 63 52 67 S6 30.01R Toms River CLEAR 60 52 74 CALM 30.02R Belmar CLEAR 67 51 56 S5 30.01S $$ PAZ047>061-062-071-270400- EASTERN PENNSYLVANIA CITY SKY/WX TMP DP RH WIND PRES REMARKS Philadelphia CLEAR 71 51 49 S6 29.99F Allentown CLEAR 64 51 62 SW6 29.99R Scranton LGT RAIN 60 53 77 N5 30.05R $$ CTZ002-004>006-009-010-012-RIZ004-006-007-MAZ004-011-015-270400- SOUTHERN NEW ENGLAND IN CT CITY SKY/WX TMP DP RH WIND PRES REMARKS Bradley INTL PTCLDY 65 53 65 N8 30.00R Hartford CLEAR 67 52 58 S6 29.98R Danbury CLEAR 64 56 75 CALM 30.00R Wtrbury/Oxford CLEAR 63 50 63 CALM 30.01S Bridgeport CLEAR 69 61 75 W5 29.99R Meriden CLEAR 61 53 75 S3 29.99R New Haven CLEAR 68 59 73 SW3 30.00R Chester FAIR 64 57 77 CALM 30.01R Groton CLEAR 65 58 78 CALM 30.00R Wilimantic CLEAR 67 55 65 S5 30.00R IN RI CITY SKY/WX TMP DP RH WIND PRES REMARKS Providence CLEAR 64 56 75 S6 30.00R Block Island CLEAR 65 60 84 SW10 30.02R Westerly CLEAR 65 59 81 CALM 30.01S IN MA CITY SKY/WX TMP DP RH WIND PRES REMARKS Boston MOCLDY 69 52 54 NW10 29.99R Worcester CLEAR 61 51 70 CALM 30.01F Westfield MOCLDY 62 56 80 N3 N/A Provincetown PTCLDY 64 60 87 S10 30.00R Nantucket N/A 62 62 100 SW8 30.02S $$ ANZ330-335-338-340-345-350-353-355-270400- COASTAL MARINE OBSERVATIONS STATION/POSITION TIME SKY/WX TEMP WIND PRES VSBY WAVE AIR SEA DIR/SP/G HT/PER (UTC) (F) (DEG/KT/KT) (MB) (MI) (FT/S) NY HARB ENTRANCE 0150 68 67 210/ 10/ 12 1015.2 2/ 3 20 S FIRE ISLAND 0250 70 70 210/ 12/ 14 1015.3 2/ 3 GREAT SOUTH BAY 0215 71 76 210/ 16/ 17 N/A 23 SSW MONTAUK P 0150 68 66 1016.2 2/ 8 15 E BARNEGAT LI 0230 65 N/A 2/ 8 HUDSON CANYON 0150 69 69 180/ 8/ 10 1016.3 2/ 6 KINGS POINT 0206 68 66 170/ 5/ 7 1015.1 EXECUTION ROCKS 0245 69 170/ 8/ 10 N/A CENTRAL LI SOUND 0245 69 210/ 16/ 19 N/A 1 EASTERN LI SOUND NOT AVBL ROBBINS REEF 0224 170/ 10/ 10 1015.9 $$ >>>>>>>>>>>>>>>>>>>>>>>>>>>> KEY <<<<<<<<<<<<<<<<<<<<<<<<<<< > < > SKY/WX - Sky Condition/Present Weather < > TMP - Temperature in Fahrenheit < > DP - Dew Point in Fahrenheit < > RH - Relative Humidity in Percent < > WIND - Direction (from) and Speed in MPH < > PRES - Mean Sea Level Pressure (inches of Hg) < > WCI - Wind Chill Index < > VSB - VISIBILITY IN MILES < > HX - HEAT INDEX < > TC - TEMPERATURE IN CELSIUS < > VRB - VARIABLE WIND DIRECTION < > < >>>>>>>>>>>>>>>>>>>>>>>>>>>> KEY <<<<<<<<<<<<<<<<<<<<<<<<<<<

USA.gov is the U.S. government's official web portal to all federal, state and local government web resources and services.